User: anonymous   Login
Location: Raleigh
(35.7720°N, 78.6390°W)
Time: 22:09:06
(UTC-04:00)
Language:

FO-29 - Orbit

View from above orbital plane
View from above orbital plane
View from above satellite
View from above satellite

Ground track
Ground track

The orbit data is extracted from the following two-line orbital elements,

1 24278U 96046B   18170.52267798 -.00000047 +00000-0 -15158-4 0  9998
2 24278 098.5174 008.9580 0351390 104.8308 259.2029 13.53084087078300
Epoch (UTC): 19 June 2018 12:32:39
Eccentricity: 0.0351390
inclination: 98.5174°
perigee height: 799 km
apogee height: 1322 km
right ascension of ascending node: 8.9580°
argument of perigee: 104.8308°
revolutions per day: 13.53084087
mean anomaly at epoch: 259.2029°
orbit number at epoch: 7830

The dashed part of the orbit path shows where the satellite is in the earth's shadow,  

DLR